Regional Weather Roundup
Issued by NWS

Home | Current Version | Previous Version | Text Only | Print | Product List | Glossary On
Versions: 1 2 3 4 5 6 7 8 9 10 11 12 13 14 15 16 17 18 19 20 21 22 23 24 25 26 27 28 29 30 31 32 33 34 35 36 37 38 39 40 41 42 43 44 45 46 47 48 49 50
000
ASUS43 KDTX 191510
RWRMI
MICHIGAN HOURLY REGIONAL WEATHER ROUNDUP
NATIONAL WEATHER SERVICE DETROIT/PONTIAC MI
1000 AM EST FRI JAN 19 2018

NOTE: "FAIR" INDICATES FEW OR NO CLOUDS BELOW 12,000 FEET WITH NO
SIGNIFICANT WEATHER AND/OR OBSTRUCTION TO VISIBILITY.

MIZ047>049-052>055-059>063-066>070-074>076-081>083-191600-
SOUTHEAST LOWER MICHIGAN

CITY           SKY/WX    TMP DP  RH WIND       PRES   REMARKS
ADRIAN         FAIR      23  15  71 SW13      29.97S WCI  11
ALMA           FAIR      29  24  79 SW12      29.85R WCI  20
ANN ARBOR      FAIR      26  16  65 S14       29.92F WCI  14
BAD AXE        FAIR      27  19  71 SW9       29.86R WCI  18
CARO           FAIR      28  19  70 S10       29.86S WCI  18
DETROIT CITY   FAIR      27  16  63 SW17      29.93F WCI  14
DETROIT        FAIR      27  16  63 SW16      29.95F WCI  15
FLINT          FAIR      28  17  63 SW9       29.89R WCI  19
GROSSE ILE     FAIR      28  17  63 SW8G18    29.95F WCI  20
HILLSDALE      FAIR      28  18  64 SW12G18   29.91F WCI  18
HOWELL         FAIR      29  20  67 SW10      29.88S WCI  20

CITY           SKY/WX    TMP DP  RH WIND       PRES   REMARKS
JACKSON        FAIR      28  17  63 SW17      29.90F WCI  16
LAMBERTVILLE   FAIR      28  15  58 SW14G20   29.97F WCI  17
LANSING        FAIR      28  19  69 SW15      29.88R WCI  16
LAPEER         FAIR      29  18  65 SW10      29.88R WCI  19
MASON          FAIR      30  17  57 SW13G20   29.89R WCI  20
MONROE         FAIR      27  14  59 SW18G25   29.95F WCI  14
MT. CLEMENS    MOSUNNY   26  12  56 SW15      29.92  WCI  13
PONTIAC        FAIR      24  17  74 S9        29.88S WCI  14
PORT HOPE        N/A     28  20  71 SW10G16   29.82S WCI  19
PORT HURON     FAIR      27  16  63 S13       29.91F WCI  16
TRI CITIES     FAIR      29  22  75 SW18      29.84S WCI  16
MIDLAND        FAIR      28  22  78 SW8       29.83S WCI  20
TROY           FAIR      27  17  65 SW13      29.93S WCI  16
SAGINAW HB     FAIR      28  21  74 SW16      29.85S WCI  17
$$
MIZ043>046-050>051-056>058-064>065-071>073-077>080-191600-
SOUTHWEST LOWER MICHIGAN

CITY           SKY/WX    TMP DP  RH WIND       PRES   REMARKS
BATTLE CREEK   FAIR      26  17  68 SW17      29.91R WCI  13
BENTON HARBOR  FAIR      30  17  58 SW10      29.93S WCI  21
BIG RAPIDS     FAIR      31  24  73 SW13G21   29.79S WCI  22
COLDWATER      FAIR      28  17  65 SW16G23   29.94F WCI  15
FREMONT        FAIR      33  23  66 SW16G23   29.83S WCI  23
HOLLAND        FAIR      33  25  72 SW17      29.89R WCI  22
GRAND RAPIDS   PTSUNNY   29  20  69 SW16      29.88R WCI  17
IONIA          FAIR      29  20  69 SW18G26   29.86R WCI  17
KALAMAZOO      FAIR      27  18  69 SW10      29.92S WCI  17
LUDINGTON      FAIR      32  28  85 SW15G23   29.78F WCI  22
MARSHALL       FAIR      28  16  63 SW13G18   29.91S WCI  17
MOUNT PLEASANT FAIR      32  25  74 SW10      29.81S WCI  24
MUSKEGON       PTSUNNY   35  26  69 SW18G28   29.87R WCI  24
SOUTH HAVEN    FAIR      31  19  61 SW9G18    29.92S WCI  23
$$
MIZ016>042-191600-
NORTHERN LOWER MICHIGAN

CITY           SKY/WX    TMP DP  RH WIND       PRES   REMARKS
ALPENA         FAIR      29  24  82 SW8       29.76F WCI  21
BEAVER ISLAND  PTSUNNY   34  29  83 SW14G20   29.68F WCI  24
BELLAIRE       FAIR      30  27  86 S10       29.75S WCI  21
CADILLAC       FAIR      28  25  87 SW16      29.74S WCI  16
CHARLEVOIX     FAIR      31  27  83 S10G18    29.74R WCI  22
FRANKFORT      FAIR      35  29  79 SW12G20   29.74F WCI  26
GAYLORD        FAIR      26  24  92 SW17      29.70F WCI  13
GRAYLING       FAIR      27  22  81 SW7       29.74F WCI  20
HARBOR SPRINGS FAIR      30  26  83 SW8       29.72R WCI  23
HOUGHTON LAKE  FAIR      27  22  81 SW8       29.76F WCI  19
MANISTEE       FAIR      32  27  81 SW7       29.77S WCI  26
OSCODA         FAIR      24  19  83 SW10      29.79F HAZE    WCI  13
PELLSTON       FAIR      31  25  78 SW13      29.71S WCI  21
ROGERS CITY    FAIR      29  24  81 SW12G17   29.73F WCI  19
TRAVERSE CITY  CLOUDY    31  25  78 VRB6      29.73F WCI  25
$$
MIZ007>008-015-191600-
EASTERN UPPER MICHIGAN

CITY           SKY/WX    TMP DP  RH WIND       PRES   REMARKS
KINROSS        CLOUDY    30  28  93 S8        29.67S WCI  23
MACKINAC ISLAN FAIR      29  26  88 S7        29.69S WCI  21
NEWBERRY       FAIR      28  27  97 S15       29.63F WCI  16
S. S. MARIE    CLOUDY    33  28  81 S8        29.66F WCI  26
MUNISING         N/A     27  23  85 S13       29.59F WCI  16
$$
MIZ004>006-011>014-085-191600-
CENTRAL UPPER MICHIGAN

CITY           SKY/WX    TMP DP  RH WIND       PRES   REMARKS
MANISTIQUE     FAIR      28  26  94 SW7       29.65F WCI  20
ESCANABA       FAIR      25  20  81 SW9       29.66F WCI  15
MENOMINEE      FAIR      26  20  77 SW14      29.68F WCI  14
SAWYER-GWINN   PTSUNNY   23  19  86 S10       29.57F WCI  12
$$
MIZ001>003-009>011-084-191600-
WESTERN UPPER MICHIGAN

CITY           SKY/WX    TMP DP  RH WIND       PRES   REMARKS
IRON MOUNTAIN  FAIR      22  19  89 SE7       29.58F WCI  13
HOUGHTON       FAIR      27  21  78 S7        29.47F WCI  19
COPPER HARBOR    N/A     31  24  75 SW13G24   29.45F WCI  21
IRONWOOD       FAIR      32  24  72 S13G20    29.52F WCI  22
$$

ABBREVIATIONS USED IN REMARKS
   TC - TEMPERATURE IN CELSIUS
  WCI - WIND CHILL INDEX
   HX - HEAT INDEX
  VSB - VISIBILITY





USA.gov is the U.S. government's official web portal to all federal, state and local government web resources and services.